Messwerte Lamar

Temperatur

Temperatur
°C
1614560400 18.00 18.00 4
1614564000 19.00 19.00 -3
1614567600 20.00 20.00
1614571200 21.00 21.00 -7
1614574800 22.00 22.00 -7
1614578400 23.00 23.00 -7
1614582000 0.00 0.00 -7
1614585600 1.00 1.00 -11
1614589200 2.00 2.00 -9
1614592800 3.00 3.00 -12
1614596400 4.00 4.00 -12
1614600000 5.00 5.00 -11
1614603600 6.00 6.00 -12
1614607200 7.00 7.00 -9
1614610800 8.00 8.00 -5
1614614400 9.00 9.00 0
1614618000 10.00 10.00 4
1614621600 11.00 11.00 6
1614625200 12.00 12.00 8
1614628800 13.00 13.00 9
1614632400 14.00 14.00 11
1614636000 15.00 15.00 10
1614639600 16.00 16.00 10
1614643200 17.00 17.00 9

Aktuellste Messwerte

Wettercharakter
Wetter: klar
Temperatur
8 °C
Feuchtigkeit
25 %
Wind
5 km/hWindrichtung: Süd
Luftdruck
1025 hPa
Messzeit: 1. März 2021, 18.00Datenquelle: METAR

Weitere Messstationen in der Nähe

Messstation Temperatur Entfernung
La Junta 7 °C 72 km
Springfield 5 °C 88 km
Burlington 3 °C 135 km
Elkhart 8 °C 139 km
Limon 3 °C 158 km
Pueblo 8 °C 160 km
Goodland 4 °C 169 km

Wind

Windrichtung Böen Mittelwind
° km/h km/h
1614560400 18.00 17.00 - 18.00 0
1614564000 19.00 18.00 - 19.00 0
1614567600 20.00 19.00 - 20.00
1614571200 21.00 20.00 - 21.00 200° 15
1614574800 22.00 21.00 - 22.00 210° 10
1614578400 23.00 22.00 - 23.00 0
1614582000 0.00 23.00 - 0.00 0
1614585600 1.00 0.00 - 1.00 240° 15
1614589200 2.00 1.00 - 2.00 0
1614592800 3.00 2.00 - 3.00 220° 5
1614596400 4.00 3.00 - 4.00 270° 5
1614600000 5.00 4.00 - 5.00
1614603600 6.00 5.00 - 6.00 210° 10
1614607200 7.00 6.00 - 7.00 220° 15
1614610800 8.00 7.00 - 8.00 290° 15
1614614400 9.00 8.00 - 9.00 270° 15
1614618000 10.00 9.00 - 10.00 250° 15
1614621600 11.00 10.00 - 11.00 5
1614625200 12.00 11.00 - 12.00 150° 5
1614628800 13.00 12.00 - 13.00 200° 10
1614632400 14.00 13.00 - 14.00 230° 5
1614636000 15.00 14.00 - 15.00 10
1614639600 16.00 15.00 - 16.00 240° 5
1614643200 17.00 16.00 - 17.00 210° 10

Ihre Wetterstation

Fehlt Ihre Wetterstation auf unserem Portal?

Schreiben Sie an network@meteonews.ch

Klima

Wann ist es am wärmsten? Wann regnet es am wenigsten? Unsere Klimadaten geben Auskunft.